owner,sensor,date,latitude,longitude,mass_concentration_of_chlorophyll_in_sea_water,qcFlag 
SCCF RECON,ioos:station:SCCF:53:1,2009-10-01T00:00:00Z,26.6493,-81.8810,6.47,1111122 
SCCF RECON,ioos:station:SCCF:53:1,2009-10-01T01:00:00Z,26.6493,-81.8810,5.81,1111122 
SCCF RECON,ioos:station:SCCF:53:1,2009-10-01T02:00:00Z,26.6493,-81.8810,5.9,1111122 
SCCF RECON,ioos:station:SCCF:53:1,2009-10-01T03:00:00Z,26.6493,-81.8810,6.23,1111122 
SCCF RECON,ioos:station:SCCF:53:1,2009-10-01T04:00:00Z,26.6493,-81.8810,6.48,1111122 
SCCF RECON,ioos:station:SCCF:53:1,2009-10-01T05:00:00Z,26.6493,-81.8810,6.24,1111122 
SCCF RECON,ioos:station:SCCF:53:1,2009-10-01T06:00:00Z,26.6493,-81.8810,4.52,1111122 
SCCF RECON,ioos:station:SCCF:53:1,2009-10-01T07:00:00Z,26.6493,-81.8810,4.92,1111122 
SCCF RECON,ioos:station:SCCF:53:1,2009-10-01T08:00:00Z,26.6493,-81.8810,5.95,1111122 
SCCF RECON,ioos:station:SCCF:53:1,2009-10-01T09:00:00Z,26.6493,-81.8810,4.99,1111122 
SCCF RECON,ioos:station:SCCF:53:1,2009-10-01T10:00:00Z,26.6493,-81.8810,5.71,1111122 
SCCF RECON,ioos:station:SCCF:53:1,2009-10-01T11:00:00Z,26.6493,-81.8810,4.8,1111122 
SCCF RECON,ioos:station:SCCF:53:1,2009-10-01T12:00:00Z,26.6493,-81.8810,4.44,1111122 
SCCF RECON,ioos:station:SCCF:53:1,2009-10-01T13:00:00Z,26.6493,-81.8810,5.42,1111122 
SCCF RECON,ioos:station:SCCF:53:1,2009-10-01T14:00:00Z,26.6493,-81.8810,5.32,1111122 
SCCF RECON,ioos:station:SCCF:53:1,2009-10-01T15:00:00Z,26.6493,-81.8810,5.91,1111122 
SCCF RECON,ioos:station:SCCF:53:1,2009-10-01T16:00:00Z,26.6493,-81.8810,5.78,1111122 
SCCF RECON,ioos:station:SCCF:53:1,2009-10-01T17:00:00Z,26.6493,-81.8810,6.82,1111122 
SCCF RECON,ioos:station:SCCF:53:1,2009-10-01T18:00:00Z,26.6493,-81.8810,5.73,1111122 
SCCF RECON,ioos:station:SCCF:53:1,2009-10-01T19:00:00Z,26.6493,-81.8810,4.97,1111122 
SCCF RECON,ioos:station:SCCF:53:1,2009-10-01T20:00:00Z,26.6493,-81.8810,6.16,1111122 
SCCF RECON,ioos:station:SCCF:53:1,2009-10-01T21:00:00Z,26.6493,-81.8810,5.96,1111122 
SCCF RECON,ioos:station:SCCF:53:1,2009-10-01T22:00:00Z,26.6493,-81.8810,7.16,1111122 
SCCF RECON,ioos:station:SCCF:53:1,2009-10-01T23:00:00Z,26.6493,-81.8810,6.53,1111122 
SCCF RECON,ioos:station:SCCF:53:1,2009-10-02T00:00:00Z,26.6493,-81.8810,5.72,1111122 
SCCF RECON,ioos:station:SCCF:53:1,2009-10-02T01:00:00Z,26.6493,-81.8810,6.11,1111122 
SCCF RECON,ioos:station:SCCF:53:1,2009-10-02T02:00:00Z,26.6493,-81.8810,5.51,1111122 
SCCF RECON,ioos:station:SCCF:53:1,2009-10-02T03:00:00Z,26.6493,-81.8810,6.59,1111122 
SCCF RECON,ioos:station:SCCF:53:1,2009-10-02T04:00:00Z,26.6493,-81.8810,6.87,1111122 
SCCF RECON,ioos:station:SCCF:53:1,2009-10-02T05:00:00Z,26.6493,-81.8810,6.67,1111122 
SCCF RECON,ioos:station:SCCF:53:1,2009-10-02T06:00:00Z,26.6493,-81.8810,6.68,1111122 
SCCF RECON,ioos:station:SCCF:53:1,2009-10-02T07:00:00Z,26.6493,-81.8810,7.06,1111122 
SCCF RECON,ioos:station:SCCF:53:1,2009-10-02T08:00:00Z,26.6493,-81.8810,5.79,1111122 
SCCF RECON,ioos:station:SCCF:53:1,2009-10-02T09:00:00Z,26.6493,-81.8810,6.94,1111122 
SCCF RECON,ioos:station:SCCF:53:1,2009-10-02T10:00:00Z,26.6493,-81.8810,6.6,1111122 
SCCF RECON,ioos:station:SCCF:53:1,2009-10-02T11:00:00Z,26.6493,-81.8810,6.32,1111122 
SCCF RECON,ioos:station:SCCF:53:1,2009-10-02T12:00:00Z,26.6493,-81.8810,6.04,1111122 
SCCF RECON,ioos:station:SCCF:53:1,2009-10-02T13:00:00Z,26.6493,-81.8810,6.09,1111122 
SCCF RECON,ioos:station:SCCF:53:1,2009-10-02T14:00:00Z,26.6493,-81.8810,5.49,1111122 
SCCF RECON,ioos:station:SCCF:53:1,2009-10-02T15:00:00Z,26.6493,-81.8810,6.1,1111122 
SCCF RECON,ioos:station:SCCF:53:1,2009-10-02T16:00:00Z,26.6493,-81.8810,7.21,1111122 
SCCF RECON,ioos:station:SCCF:53:1,2009-10-02T17:00:00Z,26.6493,-81.8810,7.89,1111122 
SCCF RECON,ioos:station:SCCF:53:1,2009-10-02T18:00:00Z,26.6493,-81.8810,7.25,1111122 
SCCF RECON,ioos:station:SCCF:53:1,2009-10-02T19:00:00Z,26.6493,-81.8810,7.54,1111122 
SCCF RECON,ioos:station:SCCF:53:1,2009-10-02T20:00:00Z,26.6493,-81.8810,5.91,1111122 
SCCF RECON,ioos:station:SCCF:53:1,2009-10-02T21:00:00Z,26.6493,-81.8810,8.05,1111122 
SCCF RECON,ioos:station:SCCF:53:1,2009-10-02T22:00:00Z,26.6493,-81.8810,9.86,1111122 
SCCF RECON,ioos:station:SCCF:53:1,2009-10-02T23:00:00Z,26.6493,-81.8810,7.94,1111122 
SCCF RECON,ioos:station:SCCF:53:1,2009-10-03T00:00:00Z,26.6493,-81.8810,7.92,1111122 
SCCF RECON,ioos:station:SCCF:53:1,2009-10-03T01:00:00Z,26.6493,-81.8810,7.79,1111122 
SCCF RECON,ioos:station:SCCF:53:1,2009-10-03T02:00:00Z,26.6493,-81.8810,7.26,1111122 
SCCF RECON,ioos:station:SCCF:53:1,2009-10-03T03:00:00Z,26.6493,-81.8810,6.25,1111122 
SCCF RECON,ioos:station:SCCF:53:1,2009-10-03T04:00:00Z,26.6493,-81.8810,7.81,1111122 
SCCF RECON,ioos:station:SCCF:53:1,2009-10-03T05:00:00Z,26.6493,-81.8810,10.46,1111122 
SCCF RECON,ioos:station:SCCF:53:1,2009-10-03T06:00:00Z,26.6493,-81.8810,7.14,1111122 
SCCF RECON,ioos:station:SCCF:53:1,2009-10-03T07:00:00Z,26.6493,-81.8810,6.02,1111122 
SCCF RECON,ioos:station:SCCF:53:1,2009-10-03T08:00:00Z,26.6493,-81.8810,5.56,1111122 
SCCF RECON,ioos:station:SCCF:53:1,2009-10-03T09:00:00Z,26.6493,-81.8810,4.85,1111122 
SCCF RECON,ioos:station:SCCF:53:1,2009-10-03T10:00:00Z,26.6493,-81.8810,6.98,1111122 
SCCF RECON,ioos:station:SCCF:53:1,2009-10-03T11:00:00Z,26.6493,-81.8810,7.58,1111122 
SCCF RECON,ioos:station:SCCF:53:1,2009-10-03T12:00:00Z,26.6493,-81.8810,6.4,1111122 
SCCF RECON,ioos:station:SCCF:53:1,2009-10-03T13:00:00Z,26.6493,-81.8810,6.88,1111122 
SCCF RECON,ioos:station:SCCF:53:1,2009-10-03T14:00:00Z,26.6493,-81.8810,5.98,1111122 
SCCF RECON,ioos:station:SCCF:53:1,2009-10-03T15:00:00Z,26.6493,-81.8810,5.44,1111122 
SCCF RECON,ioos:station:SCCF:53:1,2009-10-03T16:00:00Z,26.6493,-81.8810,6.42,1111122 
SCCF RECON,ioos:station:SCCF:53:1,2009-10-03T17:00:00Z,26.6493,-81.8810,7.63,1111122 
SCCF RECON,ioos:station:SCCF:53:1,2009-10-03T18:00:00Z,26.6493,-81.8810,8.29,1111122 
SCCF RECON,ioos:station:SCCF:53:1,2009-10-03T19:00:00Z,26.6493,-81.8810,6.1,1111122 
SCCF RECON,ioos:station:SCCF:53:1,2009-10-03T20:00:00Z,26.6493,-81.8810,5.9,1111122 
SCCF RECON,ioos:station:SCCF:53:1,2009-10-03T21:00:00Z,26.6493,-81.8810,5.66,1111122 
SCCF RECON,ioos:station:SCCF:53:1,2009-10-03T22:00:00Z,26.6493,-81.8810,5.49,1111122 
SCCF RECON,ioos:station:SCCF:53:1,2009-10-03T23:00:00Z,26.6493,-81.8810,9.8,1111122 
SCCF RECON,ioos:station:SCCF:53:1,2009-10-04T00:00:00Z,26.6493,-81.8810,10.09,1111122 
SCCF RECON,ioos:station:SCCF:53:1,2009-10-04T01:00:00Z,26.6493,-81.8810,8.38,1111122 
SCCF RECON,ioos:station:SCCF:53:1,2009-10-04T02:00:00Z,26.6493,-81.8810,9.56,1111122 
SCCF RECON,ioos:station:SCCF:53:1,2009-10-04T03:00:00Z,26.6493,-81.8810,9.25,1111122 
SCCF RECON,ioos:station:SCCF:53:1,2009-10-04T04:00:00Z,26.6493,-81.8810,7.7,1111122 
SCCF RECON,ioos:station:SCCF:53:1,2009-10-04T05:00:00Z,26.6493,-81.8810,7.27,1111122 
SCCF RECON,ioos:station:SCCF:53:1,2009-10-04T06:00:00Z,26.6493,-81.8810,5.55,1111122 
SCCF RECON,ioos:station:SCCF:53:1,2009-10-04T07:00:00Z,26.6493,-81.8810,4.78,1111122 
SCCF RECON,ioos:station:SCCF:53:1,2009-10-04T08:00:00Z,26.6493,-81.8810,4.67,1111122 
SCCF RECON,ioos:station:SCCF:53:1,2009-10-04T09:00:00Z,26.6493,-81.8810,4.67,1111122 
SCCF RECON,ioos:station:SCCF:53:1,2009-10-04T10:00:00Z,26.6493,-81.8810,5.07,1111122 
SCCF RECON,ioos:station:SCCF:53:1,2009-10-04T11:00:00Z,26.6493,-81.8810,6.21,1111122 
SCCF RECON,ioos:station:SCCF:53:1,2009-10-04T12:00:00Z,26.6493,-81.8810,6.59,1111122 
SCCF RECON,ioos:station:SCCF:53:1,2009-10-04T13:00:00Z,26.6493,-81.8810,7.58,1111122 
SCCF RECON,ioos:station:SCCF:53:1,2009-10-04T14:00:00Z,26.6493,-81.8810,7.25,1111122 
SCCF RECON,ioos:station:SCCF:53:1,2009-10-04T15:00:00Z,26.6493,-81.8810,7.13,1111122 
SCCF RECON,ioos:station:SCCF:53:1,2009-10-04T16:00:00Z,26.6493,-81.8810,6.59,1111122 
SCCF RECON,ioos:station:SCCF:53:1,2009-10-04T17:00:00Z,26.6493,-81.8810,9.59,1111122 
SCCF RECON,ioos:station:SCCF:53:1,2009-10-04T18:00:00Z,26.6493,-81.8810,9.92,1111122 
SCCF RECON,ioos:station:SCCF:53:1,2009-10-04T19:00:00Z,26.6493,-81.8810,9.38,1111122 
SCCF RECON,ioos:station:SCCF:53:1,2009-10-04T20:00:00Z,26.6493,-81.8810,10.29,1111122 
SCCF RECON,ioos:station:SCCF:53:1,2009-10-04T21:00:00Z,26.6493,-81.8810,5.91,1111122 
SCCF RECON,ioos:station:SCCF:53:1,2009-10-04T22:00:00Z,26.6493,-81.8810,6.58,1111122 
SCCF RECON,ioos:station:SCCF:53:1,2009-10-04T23:00:00Z,26.6493,-81.8810,7.82,1111122 
SCCF RECON,ioos:station:SCCF:53:1,2009-10-05T00:00:00Z,26.6493,-81.8810,8.79,1111122 
SCCF RECON,ioos:station:SCCF:53:1,2009-10-05T01:00:00Z,26.6493,-81.8810,9.48,1111122 
SCCF RECON,ioos:station:SCCF:53:1,2009-10-05T02:00:00Z,26.6493,-81.8810,10.94,1111122 
SCCF RECON,ioos:station:SCCF:53:1,2009-10-05T03:00:00Z,26.6493,-81.8810,9.26,1111122 
SCCF RECON,ioos:station:SCCF:53:1,2009-10-05T04:00:00Z,26.6493,-81.8810,8.08,1111122 
SCCF RECON,ioos:station:SCCF:53:1,2009-10-05T05:00:00Z,26.6493,-81.8810,8.34,1111122 
SCCF RECON,ioos:station:SCCF:53:1,2009-10-05T06:00:00Z,26.6493,-81.8810,6.13,1111122 
SCCF RECON,ioos:station:SCCF:53:1,2009-10-05T07:00:00Z,26.6493,-81.8810,4.7,1111122 
SCCF RECON,ioos:station:SCCF:53:1,2009-10-05T08:00:00Z,26.6493,-81.8810,4.43,1111122 
SCCF RECON,ioos:station:SCCF:53:1,2009-10-05T09:00:00Z,26.6493,-81.8810,4.37,1111122 
SCCF RECON,ioos:station:SCCF:53:1,2009-10-05T10:00:00Z,26.6493,-81.8810,5.21,1111122 
SCCF RECON,ioos:station:SCCF:53:1,2009-10-05T11:00:00Z,26.6493,-81.8810,5.55,1111122 
SCCF RECON,ioos:station:SCCF:53:1,2009-10-05T12:00:00Z,26.6493,-81.8810,6.43,1111122 
SCCF RECON,ioos:station:SCCF:53:1,2009-10-05T13:00:00Z,26.6493,-81.8810,7.0,1111122 
SCCF RECON,ioos:station:SCCF:53:1,2009-10-05T14:00:00Z,26.6493,-81.8810,7.27,1111122 
SCCF RECON,ioos:station:SCCF:53:1,2009-10-05T15:00:00Z,26.6493,-81.8810,9.23,1111122 
SCCF RECON,ioos:station:SCCF:53:1,2009-10-05T16:00:00Z,26.6493,-81.8810,8.15,1111122 
SCCF RECON,ioos:station:SCCF:53:1,2009-10-05T17:00:00Z,26.6493,-81.8810,6.9,1111122 
SCCF RECON,ioos:station:SCCF:53:1,2009-10-05T18:00:00Z,26.6493,-81.8810,6.96,1111122 
SCCF RECON,ioos:station:SCCF:53:1,2009-10-05T19:00:00Z,26.6493,-81.8810,7.77,1111122 
SCCF RECON,ioos:station:SCCF:53:1,2009-10-05T20:00:00Z,26.6493,-81.8810,7.98,1111122 
SCCF RECON,ioos:station:SCCF:53:1,2009-10-05T21:00:00Z,26.6493,-81.8810,6.72,1111122 
SCCF RECON,ioos:station:SCCF:53:1,2009-10-05T22:00:00Z,26.6493,-81.8810,4.9,1111122 
SCCF RECON,ioos:station:SCCF:53:1,2009-10-05T23:00:00Z,26.6493,-81.8810,5.64,1111122 
SCCF RECON,ioos:station:SCCF:53:1,2009-10-06T00:00:00Z,26.6493,-81.8810,6.03,1111122 
SCCF RECON,ioos:station:SCCF:53:1,2009-10-06T01:00:00Z,26.6493,-81.8810,7.19,1111122 
SCCF RECON,ioos:station:SCCF:53:1,2009-10-06T02:00:00Z,26.6493,-81.8810,8.41,1111122 
SCCF RECON,ioos:station:SCCF:53:1,2009-10-06T03:00:00Z,26.6493,-81.8810,7.23,1111122 
SCCF RECON,ioos:station:SCCF:53:1,2009-10-06T04:00:00Z,26.6493,-81.8810,6.38,1111122 
SCCF RECON,ioos:station:SCCF:53:1,2009-10-06T05:00:00Z,26.6493,-81.8810,6.26,1111122 
SCCF RECON,ioos:station:SCCF:53:1,2009-10-06T06:00:00Z,26.6493,-81.8810,5.47,1111122 
SCCF RECON,ioos:station:SCCF:53:1,2009-10-06T07:00:00Z,26.6493,-81.8810,4.45,1111122 
SCCF RECON,ioos:station:SCCF:53:1,2009-10-06T08:00:00Z,26.6493,-81.8810,4.17,1111122 
SCCF RECON,ioos:station:SCCF:53:1,2009-10-06T09:00:00Z,26.6493,-81.8810,4.0,1111122 
SCCF RECON,ioos:station:SCCF:53:1,2009-10-06T10:00:00Z,26.6493,-81.8810,4.01,1111122 
SCCF RECON,ioos:station:SCCF:53:1,2009-10-06T11:00:00Z,26.6493,-81.8810,4.64,1111122 
SCCF RECON,ioos:station:SCCF:53:1,2009-10-06T12:00:00Z,26.6493,-81.8810,5.31,1111122 
SCCF RECON,ioos:station:SCCF:53:1,2009-10-06T13:00:00Z,26.6493,-81.8810,6.07,1111122 
SCCF RECON,ioos:station:SCCF:53:1,2009-10-06T14:00:00Z,26.6493,-81.8810,6.27,1111122 
SCCF RECON,ioos:station:SCCF:53:1,2009-10-06T15:00:00Z,26.6493,-81.8810,6.21,1111122 
SCCF RECON,ioos:station:SCCF:53:1,2009-10-06T16:00:00Z,26.6493,-81.8810,7.74,1111122 
SCCF RECON,ioos:station:SCCF:53:1,2009-10-06T17:00:00Z,26.6493,-81.8810,5.49,1111122 
SCCF RECON,ioos:station:SCCF:53:1,2009-10-06T18:00:00Z,26.6493,-81.8810,8.26,1111122 
SCCF RECON,ioos:station:SCCF:53:1,2009-10-06T19:00:00Z,26.6493,-81.8810,7.95,1111122 
SCCF RECON,ioos:station:SCCF:53:1,2009-10-06T20:00:00Z,26.6493,-81.8810,6.85,1111122 
SCCF RECON,ioos:station:SCCF:53:1,2009-10-06T21:00:00Z,26.6493,-81.8810,6.03,1111122 
SCCF RECON,ioos:station:SCCF:53:1,2009-10-06T22:00:00Z,26.6493,-81.8810,5.11,1111122 
SCCF RECON,ioos:station:SCCF:53:1,2009-10-06T23:00:00Z,26.6493,-81.8810,4.4,1111122 
SCCF RECON,ioos:station:SCCF:53:1,2009-10-07T00:00:00Z,26.6493,-81.8810,4.77,1111122 
SCCF RECON,ioos:station:SCCF:53:1,2009-10-07T01:00:00Z,26.6493,-81.8810,4.95,1111122 
SCCF RECON,ioos:station:SCCF:53:1,2009-10-07T02:00:00Z,26.6493,-81.8810,4.76,1111122 
SCCF RECON,ioos:station:SCCF:53:1,2009-10-07T03:00:00Z,26.6493,-81.8810,3.99,1111122 
SCCF RECON,ioos:station:SCCF:53:1,2009-10-07T04:00:00Z,26.6493,-81.8810,4.34,1111122 
SCCF RECON,ioos:station:SCCF:53:1,2009-10-07T05:00:00Z,26.6493,-81.8810,4.54,1111122 
SCCF RECON,ioos:station:SCCF:53:1,2009-10-07T06:00:00Z,26.6493,-81.8810,4.68,1111122 
SCCF RECON,ioos:station:SCCF:53:1,2009-10-07T07:00:00Z,26.6493,-81.8810,3.96,1111122 
SCCF RECON,ioos:station:SCCF:53:1,2009-10-07T08:00:00Z,26.6493,-81.8810,3.89,1111122 
SCCF RECON,ioos:station:SCCF:53:1,2009-10-07T09:00:00Z,26.6493,-81.8810,3.76,1111122 
SCCF RECON,ioos:station:SCCF:53:1,2009-10-07T10:00:00Z,26.6493,-81.8810,3.36,1111122 
SCCF RECON,ioos:station:SCCF:53:1,2009-10-07T11:00:00Z,26.6493,-81.8810,3.94,1111122 
SCCF RECON,ioos:station:SCCF:53:1,2009-10-07T12:00:00Z,26.6493,-81.8810,4.62,1111122 
SCCF RECON,ioos:station:SCCF:53:1,2009-10-07T13:00:00Z,26.6493,-81.8810,4.65,1111122 
SCCF RECON,ioos:station:SCCF:53:1,2009-10-07T14:00:00Z,26.6493,-81.8810,4.77,1111122 
SCCF RECON,ioos:station:SCCF:53:1,2009-10-07T15:00:00Z,26.6493,-81.8810,4.99,1111122 
SCCF RECON,ioos:station:SCCF:53:1,2009-10-07T16:00:00Z,26.6493,-81.8810,4.45,1111122 
SCCF RECON,ioos:station:SCCF:53:1,2009-10-07T17:00:00Z,26.6493,-81.8810,4.15,1111122 
SCCF RECON,ioos:station:SCCF:53:1,2009-10-07T18:00:00Z,26.6493,-81.8810,4.76,1111122 
SCCF RECON,ioos:station:SCCF:53:1,2009-10-07T19:00:00Z,26.6493,-81.8810,5.62,1111122 
SCCF RECON,ioos:station:SCCF:53:1,2009-10-07T20:00:00Z,26.6493,-81.8810,5.56,1111122 
SCCF RECON,ioos:station:SCCF:53:1,2009-10-07T21:00:00Z,26.6493,-81.8810,4.79,1111122 
SCCF RECON,ioos:station:SCCF:53:1,2009-10-07T22:00:00Z,26.6493,-81.8810,4.35,1111122 
SCCF RECON,ioos:station:SCCF:53:1,2009-10-07T23:00:00Z,26.6493,-81.8810,4.97,1111122 
SCCF RECON,ioos:station:SCCF:53:1,2009-10-08T00:00:00Z,26.6493,-81.8810,5.68,1111122 
SCCF RECON,ioos:station:SCCF:53:1,2009-10-08T01:00:00Z,26.6493,-81.8810,5.48,1111122 
SCCF RECON,ioos:station:SCCF:53:1,2009-10-08T02:00:00Z,26.6493,-81.8810,5.58,1111122 
SCCF RECON,ioos:station:SCCF:53:1,2009-10-08T03:00:00Z,26.6493,-81.8810,5.82,1111122 
SCCF RECON,ioos:station:SCCF:53:1,2009-10-08T04:00:00Z,26.6493,-81.8810,4.84,1111122 
SCCF RECON,ioos:station:SCCF:53:1,2009-10-08T05:00:00Z,26.6493,-81.8810,4.97,1111122 
SCCF RECON,ioos:station:SCCF:53:1,2009-10-08T06:00:00Z,26.6493,-81.8810,4.5,1111122 
SCCF RECON,ioos:station:SCCF:53:1,2009-10-08T07:00:00Z,26.6493,-81.8810,4.13,1111122 
SCCF RECON,ioos:station:SCCF:53:1,2009-10-08T08:00:00Z,26.6493,-81.8810,3.69,1111122 
SCCF RECON,ioos:station:SCCF:53:1,2009-10-08T09:00:00Z,26.6493,-81.8810,3.46,1111122 
SCCF RECON,ioos:station:SCCF:53:1,2009-10-08T10:00:00Z,26.6493,-81.8810,3.44,1111122 
SCCF RECON,ioos:station:SCCF:53:1,2009-10-08T11:00:00Z,26.6493,-81.8810,3.69,1111122 
SCCF RECON,ioos:station:SCCF:53:1,2009-10-08T12:00:00Z,26.6493,-81.8810,4.47,1111122 
SCCF RECON,ioos:station:SCCF:53:1,2009-10-08T13:00:00Z,26.6493,-81.8810,3.77,1111122 
SCCF RECON,ioos:station:SCCF:53:1,2009-10-08T14:00:00Z,26.6493,-81.8810,4.08,1111122 
SCCF RECON,ioos:station:SCCF:53:1,2009-10-08T15:00:00Z,26.6493,-81.8810,3.9,1111122 
SCCF RECON,ioos:station:SCCF:53:1,2009-10-08T16:00:00Z,26.6493,-81.8810,3.66,1111122 
SCCF RECON,ioos:station:SCCF:53:1,2009-10-08T17:00:00Z,26.6493,-81.8810,3.51,1111122 
SCCF RECON,ioos:station:SCCF:53:1,2009-10-08T18:00:00Z,26.6493,-81.8810,4.14,1111122 
SCCF RECON,ioos:station:SCCF:53:1,2009-10-08T19:00:00Z,26.6493,-81.8810,4.18,1111122 
SCCF RECON,ioos:station:SCCF:53:1,2009-10-08T20:00:00Z,26.6493,-81.8810,4.71,1111122 
SCCF RECON,ioos:station:SCCF:53:1,2009-10-08T21:00:00Z,26.6493,-81.8810,4.36,1111122 
SCCF RECON,ioos:station:SCCF:53:1,2009-10-08T22:00:00Z,26.6493,-81.8810,4.32,1111122 
SCCF RECON,ioos:station:SCCF:53:1,2009-10-08T23:00:00Z,26.6493,-81.8810,4.29,1111122 
SCCF RECON,ioos:station:SCCF:53:1,2009-10-09T00:00:00Z,26.6493,-81.8810,3.83,1111122 
SCCF RECON,ioos:station:SCCF:53:1,2009-10-09T01:00:00Z,26.6493,-81.8810,3.46,1111122 
SCCF RECON,ioos:station:SCCF:53:1,2009-10-09T02:00:00Z,26.6493,-81.8810,4.08,1111122 
SCCF RECON,ioos:station:SCCF:53:1,2009-10-09T03:00:00Z,26.6493,-81.8810,3.7,1111122 
SCCF RECON,ioos:station:SCCF:53:1,2009-10-09T04:00:00Z,26.6493,-81.8810,3.99,1111122 
SCCF RECON,ioos:station:SCCF:53:1,2009-10-09T05:00:00Z,26.6493,-81.8810,4.12,1111122 
SCCF RECON,ioos:station:SCCF:53:1,2009-10-09T06:00:00Z,26.6493,-81.8810,4.09,1111122 
SCCF RECON,ioos:station:SCCF:53:1,2009-10-09T07:00:00Z,26.6493,-81.8810,3.82,1111122 
SCCF RECON,ioos:station:SCCF:53:1,2009-10-09T08:00:00Z,26.6493,-81.8810,3.74,1111122 
SCCF RECON,ioos:station:SCCF:53:1,2009-10-09T09:00:00Z,26.6493,-81.8810,3.45,1111122 
SCCF RECON,ioos:station:SCCF:53:1,2009-10-09T10:00:00Z,26.6493,-81.8810,3.61,1111122 
SCCF RECON,ioos:station:SCCF:53:1,2009-10-09T11:00:00Z,26.6493,-81.8810,3.4,1111122 
SCCF RECON,ioos:station:SCCF:53:1,2009-10-09T12:00:00Z,26.6493,-81.8810,3.67,1111122 
SCCF RECON,ioos:station:SCCF:53:1,2009-10-09T13:00:00Z,26.6493,-81.8810,3.71,1111122 
SCCF RECON,ioos:station:SCCF:53:1,2009-10-09T14:00:00Z,26.6493,-81.8810,3.89,1111122 
SCCF RECON,ioos:station:SCCF:53:1,2009-10-09T15:00:00Z,26.6493,-81.8810,3.68,1111122 
SCCF RECON,ioos:station:SCCF:53:1,2009-10-09T16:00:00Z,26.6493,-81.8810,3.72,1111122 
SCCF RECON,ioos:station:SCCF:53:1,2009-10-09T17:00:00Z,26.6493,-81.8810,3.73,1111122 
SCCF RECON,ioos:station:SCCF:53:1,2009-10-09T18:00:00Z,26.6493,-81.8810,3.74,1111122 
SCCF RECON,ioos:station:SCCF:53:1,2009-10-09T19:00:00Z,26.6493,-81.8810,3.89,1111122 
SCCF RECON,ioos:station:SCCF:53:1,2009-10-09T20:00:00Z,26.6493,-81.8810,3.66,1111122 
SCCF RECON,ioos:station:SCCF:53:1,2009-10-09T21:00:00Z,26.6493,-81.8810,4.41,1111122 
SCCF RECON,ioos:station:SCCF:53:1,2009-10-09T22:00:00Z,26.6493,-81.8810,4.42,1111122 
SCCF RECON,ioos:station:SCCF:53:1,2009-10-09T23:00:00Z,26.6493,-81.8810,5.09,1111122 
SCCF RECON,ioos:station:SCCF:53:1,2009-10-10T00:00:00Z,26.6493,-81.8810,4.71,1111122 
SCCF RECON,ioos:station:SCCF:53:1,2009-10-10T01:00:00Z,26.6493,-81.8810,4.4,1111122 
SCCF RECON,ioos:station:SCCF:53:1,2009-10-10T02:00:00Z,26.6493,-81.8810,4.12,1111122 
SCCF RECON,ioos:station:SCCF:53:1,2009-10-10T03:00:00Z,26.6493,-81.8810,4.54,1111122 
SCCF RECON,ioos:station:SCCF:53:1,2009-10-10T04:00:00Z,26.6493,-81.8810,4.71,1111122 
SCCF RECON,ioos:station:SCCF:53:1,2009-10-10T05:00:00Z,26.6493,-81.8810,3.98,1111122 
SCCF RECON,ioos:station:SCCF:53:1,2009-10-10T06:00:00Z,26.6493,-81.8810,4.03,1111122 
SCCF RECON,ioos:station:SCCF:53:1,2009-10-10T07:00:00Z,26.6493,-81.8810,4.54,1111122 
SCCF RECON,ioos:station:SCCF:53:1,2009-10-10T08:00:00Z,26.6493,-81.8810,4.43,1111122 
SCCF RECON,ioos:station:SCCF:53:1,2009-10-10T09:00:00Z,26.6493,-81.8810,4.1,1111122 
SCCF RECON,ioos:station:SCCF:53:1,2009-10-10T10:00:00Z,26.6493,-81.8810,3.84,1111122 
SCCF RECON,ioos:station:SCCF:53:1,2009-10-10T11:00:00Z,26.6493,-81.8810,3.66,1111122 
SCCF RECON,ioos:station:SCCF:53:1,2009-10-10T12:00:00Z,26.6493,-81.8810,3.66,1111122 
SCCF RECON,ioos:station:SCCF:53:1,2009-10-10T13:00:00Z,26.6493,-81.8810,4.05,1111122 
SCCF RECON,ioos:station:SCCF:53:1,2009-10-10T14:00:00Z,26.6493,-81.8810,4.03,1111122 
SCCF RECON,ioos:station:SCCF:53:1,2009-10-10T15:00:00Z,26.6493,-81.8810,3.8,1111122 
SCCF RECON,ioos:station:SCCF:53:1,2009-10-10T16:00:00Z,26.6493,-81.8810,4.04,1111122 
SCCF RECON,ioos:station:SCCF:53:1,2009-10-10T17:00:00Z,26.6493,-81.8810,4.11,1111122 
SCCF RECON,ioos:station:SCCF:53:1,2009-10-10T18:00:00Z,26.6493,-81.8810,4.07,1111122 
SCCF RECON,ioos:station:SCCF:53:1,2009-10-10T19:00:00Z,26.6493,-81.8810,4.94,1111122 
SCCF RECON,ioos:station:SCCF:53:1,2009-10-10T20:00:00Z,26.6493,-81.8810,4.06,1111122 
SCCF RECON,ioos:station:SCCF:53:1,2009-10-10T21:00:00Z,26.6493,-81.8810,3.89,1111122 
SCCF RECON,ioos:station:SCCF:53:1,2009-10-10T22:00:00Z,26.6493,-81.8810,3.75,1111122 
SCCF RECON,ioos:station:SCCF:53:1,2009-10-10T23:00:00Z,26.6493,-81.8810,4.4,1111122 
SCCF RECON,ioos:station:SCCF:53:1,2009-10-11T00:00:00Z,26.6493,-81.8810,4.19,1111122 
SCCF RECON,ioos:station:SCCF:53:1,2009-10-11T01:00:00Z,26.6493,-81.8810,3.84,1111122 
SCCF RECON,ioos:station:SCCF:53:1,2009-10-11T02:00:00Z,26.6493,-81.8810,3.76,1111122 
SCCF RECON,ioos:station:SCCF:53:1,2009-10-11T03:00:00Z,26.6493,-81.8810,3.95,1111122 
SCCF RECON,ioos:station:SCCF:53:1,2009-10-11T04:00:00Z,26.6493,-81.8810,3.75,1111122 
SCCF RECON,ioos:station:SCCF:53:1,2009-10-11T05:00:00Z,26.6493,-81.8810,3.62,1111122 
SCCF RECON,ioos:station:SCCF:53:1,2009-10-11T06:00:00Z,26.6493,-81.8810,3.41,1111122 
SCCF RECON,ioos:station:SCCF:53:1,2009-10-11T07:00:00Z,26.6493,-81.8810,3.47,1111122 
SCCF RECON,ioos:station:SCCF:53:1,2009-10-11T08:00:00Z,26.6493,-81.8810,3.78,1111122 
SCCF RECON,ioos:station:SCCF:53:1,2009-10-11T09:00:00Z,26.6493,-81.8810,3.72,1111122 
SCCF RECON,ioos:station:SCCF:53:1,2009-10-11T10:00:00Z,26.6493,-81.8810,3.66,1111122 
SCCF RECON,ioos:station:SCCF:53:1,2009-10-11T11:00:00Z,26.6493,-81.8810,3.46,1111122 
SCCF RECON,ioos:station:SCCF:53:1,2009-10-11T12:00:00Z,26.6493,-81.8810,3.3,1111122 
SCCF RECON,ioos:station:SCCF:53:1,2009-10-11T13:00:00Z,26.6493,-81.8810,3.51,1111122 
SCCF RECON,ioos:station:SCCF:53:1,2009-10-11T14:00:00Z,26.6493,-81.8810,3.32,1111122 
SCCF RECON,ioos:station:SCCF:53:1,2009-10-11T15:00:00Z,26.6493,-81.8810,3.52,1111122 
SCCF RECON,ioos:station:SCCF:53:1,2009-10-11T16:00:00Z,26.6493,-81.8810,3.63,1111122 
SCCF RECON,ioos:station:SCCF:53:1,2009-10-11T17:00:00Z,26.6493,-81.8810,3.45,1111122 
SCCF RECON,ioos:station:SCCF:53:1,2009-10-11T18:00:00Z,26.6493,-81.8810,3.46,1111122 
SCCF RECON,ioos:station:SCCF:53:1,2009-10-11T19:00:00Z,26.6493,-81.8810,3.59,1111122 
SCCF RECON,ioos:station:SCCF:53:1,2009-10-11T20:00:00Z,26.6493,-81.8810,3.46,1111122 
SCCF RECON,ioos:station:SCCF:53:1,2009-10-11T21:00:00Z,26.6493,-81.8810,3.45,1111122 
SCCF RECON,ioos:station:SCCF:53:1,2009-10-11T22:00:00Z,26.6493,-81.8810,3.26,1111122 
SCCF RECON,ioos:station:SCCF:53:1,2009-10-11T23:00:00Z,26.6493,-81.8810,3.73,1111122 
SCCF RECON,ioos:station:SCCF:53:1,2009-10-12T00:00:00Z,26.6493,-81.8810,3.85,1111122 
SCCF RECON,ioos:station:SCCF:53:1,2009-10-12T01:00:00Z,26.6493,-81.8810,3.78,1111122 
SCCF RECON,ioos:station:SCCF:53:1,2009-10-12T02:00:00Z,26.6493,-81.8810,3.6,1111122 
SCCF RECON,ioos:station:SCCF:53:1,2009-10-12T03:00:00Z,26.6493,-81.8810,3.64,1111122 
SCCF RECON,ioos:station:SCCF:53:1,2009-10-12T04:00:00Z,26.6493,-81.8810,3.49,1111122 
SCCF RECON,ioos:station:SCCF:53:1,2009-10-12T05:00:00Z,26.6493,-81.8810,3.39,1111122 
SCCF RECON,ioos:station:SCCF:53:1,2009-10-12T06:00:00Z,26.6493,-81.8810,3.34,1111122 
SCCF RECON,ioos:station:SCCF:53:1,2009-10-12T07:00:00Z,26.6493,-81.8810,2.99,1111122 
SCCF RECON,ioos:station:SCCF:53:1,2009-10-12T08:00:00Z,26.6493,-81.8810,3.12,1111122 
SCCF RECON,ioos:station:SCCF:53:1,2009-10-12T09:00:00Z,26.6493,-81.8810,3.27,1111122 
SCCF RECON,ioos:station:SCCF:53:1,2009-10-12T10:00:00Z,26.6493,-81.8810,3.36,1111122 
SCCF RECON,ioos:station:SCCF:53:1,2009-10-12T11:00:00Z,26.6493,-81.8810,3.35,1111122 
SCCF RECON,ioos:station:SCCF:53:1,2009-10-12T12:00:00Z,26.6493,-81.8810,3.18,1111122 
SCCF RECON,ioos:station:SCCF:53:1,2009-10-12T13:00:00Z,26.6493,-81.8810,3.19,1111122 